Weather observations for the past three days for
Titusville
Imperial (Metric)
Date Time (edt) Wind (mph) Vis. (mi.) Weather Sky Cond. Temperature (ºF) Relative Humidity Wind Chill (°F) Heat Index (°F) Pressure Precipitation (in)
Air Dwpt 6 hour altimeter (in) sea level (mb) 1 hr 3 hr 6 hr
Max. Min.
18 18:50 S 12 7.00 Partly Cloudy BKN020 SCT030 87.8 78.8 75% 102 30.05 0.0
18 17:50 SE 8 7.00 Clear SKC 87.8 78.8 75% 102 30.04 0.0
18 16:50 Calm 7.00 Overcast OVC020 86 80.6 84% 102 30.05 0.0
18 15:52 SE 12 5.00 Fog/Mist SCT010 BKN050 86 73.4 66% 93 30.07 0.0
18 14:50 SE 12 7.00 Partly Cloudy SCT050 95 73.4 50% 105 30.07 0.0
18 13:47 Vrbl 7 7.00 Partly Cloudy SCT050 95 73.4 50% 105 30.07 0.0
18 12:47 Vrbl 6 7.00 Partly Cloudy SCT040 95 71.6 47% 103 30.09 0.0
18 11:47 S 6 7.00 Partly Cloudy SCT030 93.2 75.2 56% 105 30.11 0.0
18 09:48 SW 6 7.00 Partly Cloudy SCT022 89.6 77 67% 103 30.12 0.0
18 07:47 Calm 7.00 Clear SKC 80.6 78.8 94% 88 30.09 0.0
18 06:47 Calm 7.00 Clear SKC 78.8 77 94% 83 30.06 0.0
17 20:50 SE 6 7.00 Clear SKC 86 73.4 66% 93 30.07 0.0
17 19:50 SE 9 7.00 Clear SKC 87.8 73.4 62% 96 30.07 0.0
17 18:50 SE 6 7.00 Clear SKC 91.4 73.4 56% 100 30.07 0.0
17 17:50 SE 6 7.00 Clear SKC 75.2 73.4 94% 74 30.07 0.0
17 16:50 SE 9 7.00 Partly Cloudy SCT050 95 71.6 47% 103 30.07 0.0
17 15:50 SE 6 7.00 Partly Cloudy SCT050 95 73.4 50% 105 30.07 0.0
17 13:47 Calm 7.00 Partly Cloudy SCT045 93.2 68 44% 98 30.11 0.0
17 12:47 SW 6 7.00 A Few Clouds FEW030 93.2 71.6 50% 101 30.11 0.0
17 11:47 SW 8 7.00 Clear SKC 91.4 71.6 52% 99 30.11 0.0
17 10:47 SW 8 7.00 Clear SKC 89.6 71.6 55% 96 30.12 0.0
17 09:47 S 5 7.00 Clear SKC 86 77 75% 97 30.12 0.0
17 08:47 Calm 7.00 Clear SKC 84.2 77 79% 94 30.1 0.0
17 07:47 Calm 7.00 Clear SKC 77 75.2 94% 78 30.09 0.0
17 06:47 Calm 7.00 Partly Cloudy SCT110 75.2 73.4 94% 74 30.07 0.0
16 20:47 SW 6 7.00 Partly Cloudy SCT110 77 71.6 83% 78 30.05 0.0
16 19:52 SW 6 7.00 Partly Cloudy SCT110 77 71.6 83% 78 30.05 0.0
16 18:50 SW 9 6.00 Mostly Cloudy with Haze SCT020 BKN060 77 71.6 83% 78 30.05 0.0
16 17:47 SW 12 5.00 Light Rain SCT020 OVC060 77 69.8 79% 79 30.1 0.0
16 16:47 SE 12 7.00 Partly Cloudy SCT030 89.6 75.2 63% 100 30.06 0.0
16 15:47 E 12 7.00 Partly Cloudy SCT030 95 75.2 53% 107 30.04 0.0
16 14:47 SE 12 7.00 Mostly Cloudy SCT020 BKN030 91.4 77 63% 105 30.06 0.0
16 13:47 E 12 7.00 Mostly Cloudy SCT040 BKN050 93.2 75.2 56% 105 30.07 0.0
16 12:47 Calm 7.00 Partly Cloudy SCT038 SCT048 93.2 73.4 53% 103 30.09 0.0
16 11:47 Calm 7.00 Mostly Cloudy SCT034 BKN055 91.4 75.2 59% 103 30.1 0.0
16 10:47 S 3 7.00 Partly Cloudy SCT025 SCT031 91.4 77 63% 105 30.1 0.0
16 09:47 S 7 7.00 Partly Cloudy SCT030 89.6 77 67% 103 30.1 0.0
16 08:47 S 6 7.00 Fair CLR 86 78.8 79% 99 30.09 0.0
16 07:47 S 3 7.00 Fair CLR 80.6 78.8 94% 88 30.08 0.0
16 06:47 Calm 7.00 Partly Cloudy SCT070 78.8 75.2 89% 82 30.07 0.0
15 20:47 Calm 7.00 Partly Cloudy SCT050 82.4 78.8 89% 92 30.07 0.0
15 19:47 S 6 7.00 Partly Cloudy SCT050 86 77 75% 97 30.07 0.0
Date Time (edt) Wind (mph) Vis. (mi.) Weather Sky Cond. Air Dwpt Max. Min. Relative Humidity Wind Chill (°F) Heat Index (°F) altimeter (in) sea level (mb) 1 hr 3 hr 6 hr
6 hour
Temperature (ºF) Pressure Precipitation (in)